Terug naar catalogus

STARLINK-34953

ActiefCommunicatieSSO
NORAD 65240·PAYLOAD·🇺🇸 United States

Gelanceerd Aug 18, 2025 vanaf Vandenberg Space Force Base

Loading…

Volgende Passages (komende 24 uur)

TLE

VersSource: CelesTrak SupGP

Epoch: Sep 14, 2026, 23:08 UTC

1 65240C 25179F   26257.96437500  .00060010  00000+0  18633-2 0  2573
2 65240  97.2831 297.3767 0001158 106.6735 310.9848 15.33401550    14

Volg STARLINK-34953 in realtime met AllMySat

Download on the App Store